CZ-6A DEB, 54586

Orbit data source: Space-Track

CZ-6A DEB, 54586 is space debris in SSO originally from a launch on Fri, 11 Nov 2022 UTC launched from the Taiyaun Space Center, China (TSC). Debris objects in space refer to the collection of defunct objects orbiting the Earth. Examples of debris include non-operational satellites, rocket bodies, and fragments generated from explosions, collisions, or faulty payload assembly.

Loading next visibility...
Identifier
54586, 2022-151MN
Orbit
SSO
Country
Flag of CNCN / PRC
Related business
Manufacturer
SAST
Mission
Spacecraft
Bus & Motor
Unknown
Mass
Unknown
Launch date (UTC)
2022-11-11 (4 years ago)
Launch vehicle
Unknown
Launch site
Taiyaun Space Center, China (TSC)
Object type
Payload
Rocket body
Debris
Shape & HBR
Unknown shape, 0.1 m
Radar Cross Section
Medium (>0.1 m² and <1 m²)

Expand to show TLE details & history
Last TLE update: 3 days ago

TLE from 3 days ago
0 CZ-6A DEB
1 54586U 22151MN  26170.27505461  .00000908  00000-0  39610-3 0  9994
2 54586  98.7555 190.6846 0061329 332.9278  26.8707 14.25404892186215
Epoch: 2026-06-19T06:36Z
TLE epoch observation values (Epoch: 2026-06-19T06:36:04.718Z)
Latitude
-0°
Longitude
-175.84143°
Altitude
770.791 km
Speed
7.489 km/s
True Right ascension
12h 42m 44s
True Declination
0° 00' 00"
Sunlit
Object was in daylight at epoch
Visualization orbit readout
Latitude
Unknown
Longitude
Unknown
Altitude
Unknown
Speed
Unknown
Apparent Right ascension
Unknown
Apparent Declination
Unknown
Sunlit
N/A
Visualization observer readout
Local Sidereal Time
21:35:22
Azimuth
Unknown
Elevation
Unknown
Doppler factor
Unknown
Orbital elements
Apogee altitude
848.334 km
Perigee altitude
760.236 km
Semi-major axis
7,182.422 km
Eccentricity
0.00613
Inclination
98.7555°
RAAN
190.6846°
Arg. of periapsis
332.9278°
True anomaly
27.19053°
Mean anomaly
26.8707°
Eccentric anomaly
27.03039°
Mean motion
3.56563 °/min
Orbital period
100.96 mins
BSTAR
0.0003961
Loading maneuver chart data...
Computing Atmospheric mass density...
Loading historical data...
Loading historical data...
Loading historical data...
Loading historical data...
Loading historical data...
Loading historical data...
Loading historical data...

Documentation

Showing up to 5 results
|